Regional Weather Roundup
Issued by NWS

Home | Current Version | Previous Version | Graphics & Text | Print | Product List | Glossary Off
Versions: 1 2 3 4 5 6 7 8 9 10 11 12 13 14 15 16 17 18 19 20 21 22 23 24 25 26 27 28 29 30 31 32 33 34 35 36 37 38 39 40 41 42 43 44 45 46 47 48 49 50

000
ASUS43 KMKX 050200
RWRWI

WISCONSIN REGIONAL WEATHER ROUNDUP
NATIONAL WEATHER SERVICE MILWAUKEE/SULLIVAN WI
900 PM CDT SAT JUL 04 2015

NOTE: "FAIR" INDICATES FEW OR NO CLOUDS BELOW 12,000 FEET WITH NO
SIGNIFICANT WEATHER AND/OR OBSTRUCTIONS TO VISIBILITY.

WIZ001-002-006>008-014>016-023>028-050300-
NORTHWEST WISCONSIN

CITY           SKY/WX    TMP DP  RH WIND       PRES   REMARKS
SUPERIOR ARPT  CLEAR     60  57  91 NE7       29.89F
ASHLAND        CLEAR     59  58  96 CALM      29.90F
HAYWARD        MOCLDY    73  63  70 CALM      29.91S HAZE
SIREN          CLEAR     76  64  66 S5        29.89F HAZE
CUMBERLAND     CLEAR     72  64  78 S6        29.92S HAZE
RICE LAKE      CLEAR     74  65  73 S5        29.93S HAZE
CHETEK         NOT AVBL
LADYSMITH      CLEAR     75  64  67 S3        29.95S HAZE
EAU CLAIRE     NOT AVBL
MENOMONIE      CLEAR     74  65  73 SE5       29.91F HAZE
NEW RICHMOND   CLEAR     74  65  73 SE5       29.90S HAZE
OSCEOLA        CLEAR     75  66  73 SE6       29.91S HAZE
$$

WIZ003>005-009-010-017-018-050300-
NORTH CENTRAL WISCONSIN

CITY           SKY/WX    TMP DP  RH WIND       PRES   REMARKS
MANITOWISH WTR MOCLDY    71  61  71 CALM      29.95S
ARBOR VITAE    MOCLDY    72  61  68 CALM      29.96S
WOODRUFF       MOCLDY    72  61  68 CALM      29.96S
RHINELANDER    MOCLDY    70  63  78 CALM      29.97F
EAGLE RIVER    MOCLDY    72  57  60 SE3       29.96S
LAND O LAKES   MOCLDY    66  62  85 CALM      29.97S
PHILLIPS       CLEAR     71  62  75 CALM      29.94S
TOMAHAWK       PTCLDY    69  62  80 CALM      29.97R HAZE
MEDFORD        MOCLDY    74  64  73 S6        29.95S HAZE
MERRILL        PTCLDY    75  62  63 S3        29.96S
$$

WIZ029-030-035-036-043>047-050300-
CENTRAL WISCONSIN

CITY           SKY/WX    TMP DP  RH WIND       PRES   REMARKS
WAUSAU         PTCLDY    76  64  66 CALM      29.94S HAZE
MOSINEE        NOT AVBL
MARSHFIELD     CLEAR     73  62  68 SW3       29.95S HAZE
STEVENS POINT  PTCLDY    75  62  63 SW6       29.96S
WAUPACA        PTCLDY    75  64  67 S3        29.96R
WAUTOMA        NOT AVBL
WISC RAPIDS    PTCLDY    73  63  70 S5        29.97R
CAMP DOUGLAS   NOT AVBL
$$

WIZ011>013-019>022-031-037>040-048>050-050300-
NORTHEAST WISCONSIN

CITY           SKY/WX    TMP DP  RH WIND       PRES   REMARKS
ANTIGO         PTCLDY    69  63  83 SE6       29.98S
SHAWANO        PTCLDY    74  65  74 SE3       29.96S
OCONTO         PTCLDY    67  63  87 E3        29.97R
STURGEON BAY   PTCLDY    63  55  77 SE5       30.01S
GREEN BAY      PTCLDY    69  62  78 SE6       29.97R
MANITOWOC      NOT AVBL
APPLETON       MOCLDY    73  63  68 VRB5      29.97R
CLINTONVILLE   CLEAR     72  64  78 SE5       29.95S
OSHKOSH        PTCLDY    71  63  75 S3        29.96S
$$

WIZ032>034-041-042-053>061-050300-
SOUTHWEST WISCONSIN

CITY           SKY/WX    TMP DP  RH WIND       PRES   REMARKS
LA CROSSE      CLEAR     75  65  70 S6        29.93S
SPARTA         CLEAR     74  63  67 CALM      29.95S
VIROQUA        CLEAR     73  64  73 S3        29.98S
BOSCOBEL       CLEAR     71  65  81 CALM      29.96S
PRAIRIE DU CHI CLEAR     73  62  69 CALM      29.96S
PLATTEVILLE    CLEAR     74  62  66 CALM      29.98F
$$

WIZ056-057-062-063-064-067-068-050300-
SOUTH CENTRAL WISCONSIN

CITY           SKY/WX    TMP DP  RH WIND       PRES   REMARKS
REEDSBURG      CLEAR     73  62  69 CALM      29.96S
BARABOO/DELLS  CLEAR     71  60  68 CALM      29.97S
LONE ROCK      NOT AVBL
MINERAL POINT  CLEAR     73  57  56 SW3       29.99F
MADISON        PTCLDY    74  62  66 SW3       29.97S
MIDDLETON      CLEAR     75  60  59 SW5       29.98S
WATERTOWN      CLEAR     73  64  73 CALM      29.97S
MONROE         CLEAR     73  63  68 SW3       29.99S
JANESVILLE     CLEAR     75  63  64 CALM      29.98S
$$

WIZ051-052-058>065-066-070>072-050300-
SOUTHEAST WISCONSIN

CITY           SKY/WX    TMP DP  RH WIND       PRES   REMARKS
MILWAUKEE      MOCLDY    71  56  58 S6        29.98S
WAUKESHA       CLEAR     73  61  64 CALM      29.99S
MILWAUKEE/TIMM CLEAR     75  57  53 CALM      29.98S
RACINE         CLEAR     68  53  58 S5        30.00S
BURLINGTON     CLEAR     68  62  81 SW3       29.99R
KENOSHA        CLEAR     69  56  62 S6        29.99S
FOND DU LAC    PTCLDY    73  64  73 CALM      29.97R
SHEBOYGAN      PTCLDY    69  59  70 CALM      29.98R
WEST BEND      CLEAR     70  61  73 CALM      29.98S
JUNEAU         CLEAR     73  63  72 S3        29.98S
$$

LSZ147-162-050300-
LAKE SUPERIOR

STATION/POSITION TIME  TEMP    WIND        PRES    WAVE
                       AIR SEA DIR/SP/G            HT/PER
                 (UTC) (F)     (DEG/KT/KT) (MB)    (FT/S)
W MID LAKE BUOY  0050   45 39   90/ 10/ 10 1013.4F   0
DEVILS ISLAND    0100   58      90/  8/  9 1013.0F
SAXON HARBOR     0100   67        CALM     1012.5
$$

LMZ867-665-643>646-050300-
LAKE MICHIGAN

STATION/POSITION TIME  TEMP    WIND        PRES    WAVE
                       AIR SEA DIR/SP/G            HT/PER
                 (UTC) (F)     (DEG/KT/KT) (MB)    (FT/S)
CHAMBERS ISLAND  0100   69     120/  3/  6 1014.9S
S GREEN BAY BUOY 0030   71 70  150/ 10/ 12 1016.1R
N MID LAKE BUOY  0050   61 53  170/  2/  4 1015.4R   0
NORTHPORT PIER   0100   65     170/  4/  6 1015.2R
SISTER BAY       0014   69     150/  7/  9   N/A
ALGOMA LAKESHORE 0111          210/  5/  7   N/A
KEWAUNEE LAKESHO 0100   62     160/  4/  6 1014.8R
SHEBOYGAN LAKESH 0100   63     160/  7/  8 1015.2F
PORT WASHINGTON  0140   65      CALM  /  2 1015.9S
ATWATER BUOY     0100   65 61  180/ 10/ 12 1016.2F
MILWAUKEE LAKESH 0100   66     150/ 11/ 13   N/A
KENOSHA   LAKESH 0100   68     180/  7/  9 1014.9S
$$

TC  - TEMPERATURE IN CELSIUS
VSB - VISIBILITY IN STATUTE MILES
WCI - WIND CHILL INDEX
HX  - HEAT INDEX




USA.gov is the U.S. government's official web portal to all federal, state and local government web resources and services.